Clarion, IA

1:03 AM CST on February 13, 2016 (GMT -0600)
Clarion Municipal

Weather History for KCAV - February, 2013

Change the Weather History Date:

Tuesday, February 26, 2013

  Actual Average Record
Temperature  
Mean Temperature 28 °F -  
Max Temperature 32 °F 34 °F 51 °F (1951)
Min Temperature 24 °F 16 °F -24 °F (1950)
Degree Days  
Heating Degree Days 37    
Moisture  
Dew Point 24 °F    
Average Humidity 84    
Maximum Humidity 93    
Minimum Humidity 75    
Precipitation  
Precipitation 0.00 in - - ()
Sea Level Pressure  
Sea Level Pressure 29.83 in    
Wind  
Wind Speed 13 mph (NNE)    
Max Wind Speed 21 mph    
Max Gust Speed 25 mph    
Visibility 5 miles    
Events Rain    
Averages and records for this station are not official NWS values.
T = Trace of Precipitation, MM = Missing Value Source: NWS Daily Summary

Daily Weather History Graph

Daily Weather History Graph

Search for Another Location

Airport or City:

Trip Planner

Search our weather history database for the weather conditions in past years. The results will help you decide how hot, cold, wet, or windy it might be!

Date:

Astronomy

Feb. 26, 2013 Rise Set
Actual Time 6:55 AM CST 6:01 PM CST
Civil Twilight 6:26 AM CST 6:29 PM CST
Nautical Twilight 5:54 AM CST 7:02 PM CST
Astronomical Twilight 5:21 AM CST 7:35 PM CST
Moon 7:21 PM CST (2/26) 6:55 AM CST (2/26)
Length of Visible Light 12h 02m
Length of Day
11h 06m
Full, 99% of the Moon is Illuminated
Feb 26
Full
Mar 4
Last Quarter
Mar 11
New
Mar 19
First Quarter
Mar 27
Full

Hourly Weather History & Observations

Time (CST) Temp. Windchill Dew Point Humidity Pressure Visibility Wind Dir Wind Speed Gust Speed Precip Events Conditions
12:15 AM 24.8 °F 14.6 °F 23.0 °F 93% 29.94 in 3.0 mi NE 10.4 mph - N/A   Clear
12:35 AM 24.8 °F 14.6 °F 23.0 °F 93% 29.94 in 2.5 mi NNE 10.4 mph - N/A   Clear
12:55 AM 24.8 °F 14.6 °F 21.2 °F 86% 29.93 in 3.0 mi NNE 10.4 mph - N/A   Clear
1:15 AM 24.8 °F 14.0 °F 21.2 °F 86% 29.93 in 3.0 mi NNE 11.5 mph - N/A   Clear
1:35 AM 24.8 °F 15.3 °F 23.0 °F 93% 29.94 in 3.0 mi NE 9.2 mph - N/A   Clear
1:55 AM 26.6 °F 16.2 °F 23.0 °F 86% 29.91 in 4.0 mi NNE 11.5 mph - N/A   Clear
2:15 AM 26.6 °F 16.8 °F 23.0 °F 86% 29.91 in 5.0 mi NE 10.4 mph - N/A   Clear
2:35 AM 24.8 °F 14.0 °F 21.2 °F 86% 29.90 in 4.0 mi NE 11.5 mph - N/A   Partly Cloudy
2:55 AM 24.8 °F 13.4 °F 21.2 °F 86% 29.89 in 3.0 mi NNE 12.7 mph - N/A   Scattered Clouds
3:15 AM 24.8 °F 13.4 °F 21.2 °F 86% 29.88 in 4.0 mi NNE 12.7 mph - N/A   Partly Cloudy
3:35 AM 24.8 °F 11.9 °F 23.0 °F 93% 29.86 in 4.0 mi NE 16.1 mph - N/A   Clear
3:55 AM 24.8 °F 13.4 °F 21.2 °F 86% 29.87 in 4.0 mi NE 12.7 mph - N/A   Clear
4:15 AM 24.8 °F 12.9 °F 21.2 °F 86% 29.87 in 4.0 mi NE 13.8 mph - N/A   Partly Cloudy
4:35 AM 24.8 °F 15.3 °F 21.2 °F 86% 29.86 in 4.0 mi NE 9.2 mph - N/A   Partly Cloudy
4:55 AM 24.8 °F 13.4 °F 21.2 °F 86% 29.86 in 4.0 mi NNE 12.7 mph - N/A   Clear
5:15 AM 24.8 °F 12.9 °F 21.2 °F 86% 29.86 in 4.0 mi NNE 13.8 mph - N/A   Clear
5:35 AM 24.8 °F 13.4 °F 21.2 °F 86% 29.86 in 4.0 mi NNE 12.7 mph - N/A   Clear
5:55 AM 24.8 °F 12.9 °F 21.2 °F 86% 29.86 in 5.0 mi NNE 13.8 mph - N/A   Clear
6:15 AM 24.8 °F 12.9 °F 21.2 °F 86% 29.85 in 5.0 mi NNE 13.8 mph - N/A   Clear
6:35 AM 24.8 °F 12.9 °F 21.2 °F 86% 29.85 in 5.0 mi North 13.8 mph - N/A   Clear
6:55 AM 24.8 °F 12.9 °F 21.2 °F 86% 29.84 in 3.0 mi North 13.8 mph - N/A   Clear
7:15 AM 24.8 °F 14.0 °F 21.2 °F 86% 29.85 in 3.0 mi North 11.5 mph - N/A   Clear
7:35 AM 24.8 °F 14.0 °F 21.2 °F 86% 29.85 in 3.0 mi NNE 11.5 mph - N/A   Clear
7:55 AM 26.6 °F 14.7 °F 23.0 °F 86% 29.85 in 3.0 mi NNE 15.0 mph - N/A   Clear
8:15 AM 26.6 °F 15.2 °F 23.0 °F 86% 29.85 in 3.0 mi NNE 13.8 mph - N/A   Clear
8:35 AM 26.6 °F 15.2 °F 23.0 °F 86% 29.86 in 4.0 mi NNE 13.8 mph - N/A   Clear
8:55 AM 26.6 °F 14.7 °F 23.0 °F 86% 29.85 in 4.0 mi NNE 15.0 mph - N/A   Haze
9:15 AM 28.4 °F 16.6 °F 23.0 °F 80% 29.85 in 5.0 mi NE 16.1 mph - N/A   Haze
9:35 AM 28.4 °F 17.0 °F 23.0 °F 80% 29.85 in 6.0 mi NE 15.0 mph 21.9 mph N/A   Haze
9:55 AM 28.4 °F 17.0 °F 23.0 °F 80% 29.85 in 6.0 mi NNE 15.0 mph - N/A   Haze
10:15 AM 28.4 °F 16.6 °F 23.0 °F 80% 29.84 in 6.0 mi NNE 16.1 mph - N/A   Haze
10:35 AM 30.2 °F 19.3 °F 24.8 °F 80% 29.84 in 7.0 mi NNE 15.0 mph - N/A   Partly Cloudy
10:55 AM 30.2 °F 18.9 °F 24.8 °F 80% 29.83 in 6.0 mi NNE 16.1 mph - N/A   Haze
11:15 AM 30.2 °F 18.9 °F 24.8 °F 80% 29.82 in 6.0 mi NNE 16.1 mph - N/A   Haze
11:35 AM 30.2 °F 18.5 °F 24.8 °F 80% 29.81 in 7.0 mi NNE 17.3 mph - N/A   Partly Cloudy
11:55 AM 30.2 °F 18.5 °F 24.8 °F 80% 29.81 in 7.0 mi NNE 17.3 mph - N/A   Partly Cloudy
12:15 PM 32.0 °F 21.2 °F 24.8 °F 75% 29.81 in 7.0 mi NNE 16.1 mph - N/A   Clear
12:35 PM 32.0 °F 21.2 °F 26.6 °F 80% 29.80 in 7.0 mi NNE 16.1 mph - N/A   Partly Cloudy
12:55 PM 32.0 °F 21.6 °F 26.6 °F 80% 29.79 in 7.0 mi NNE 15.0 mph - N/A   Clear
1:15 PM 32.0 °F 20.5 °F 26.6 °F 80% 29.79 in 6.0 mi NNE 18.4 mph - N/A   Haze
1:35 PM 32.0 °F 20.8 °F 26.6 °F 80% 29.78 in 7.0 mi NNE 17.3 mph 23.0 mph N/A   Clear
1:55 PM 32.0 °F 20.1 °F 26.6 °F 80% 29.77 in 7.0 mi NNE 19.6 mph - N/A   Partly Cloudy
2:15 PM 32.0 °F 20.5 °F 26.6 °F 80% 29.77 in 8.0 mi NNE 18.4 mph 24.2 mph N/A   Clear
2:35 PM 32.0 °F 20.1 °F 26.6 °F 80% 29.77 in 8.0 mi NNE 19.6 mph - N/A   Clear
2:55 PM 32.0 °F 20.8 °F 26.6 °F 80% 29.77 in 8.0 mi NNE 17.3 mph 23.0 mph N/A   Clear
3:15 PM 32.0 °F 20.8 °F 26.6 °F 80% 29.77 in 8.0 mi North 17.3 mph 25.3 mph N/A   Light Drizzle
3:35 PM 32.0 °F 20.8 °F 26.6 °F 80% 29.77 in 8.0 mi NNE 17.3 mph - N/A   Partly Cloudy
3:55 PM 32.0 °F 19.8 °F 26.6 °F 80% 29.77 in 8.0 mi NNE 20.7 mph - N/A   Scattered Clouds
4:15 PM 32.0 °F 20.1 °F 26.6 °F 80% 29.77 in 7.0 mi NNE 19.6 mph - N/A   Scattered Clouds
4:35 PM 32.0 °F 21.6 °F 26.6 °F 80% 29.78 in 4.0 mi North 15.0 mph 20.7 mph N/A Rain Light Rain
4:55 PM 32.0 °F 23.0 °F 26.6 °F 80% 29.78 in 3.0 mi North 11.5 mph 18.4 mph N/A Rain Light Rain
5:15 PM 32.0 °F 22.5 °F 26.6 °F 80% 29.78 in 3.0 mi North 12.7 mph 19.6 mph N/A Rain Light Rain
5:35 PM 32.0 °F 21.2 °F 26.6 °F 80% 29.78 in 2.5 mi North 16.1 mph - N/A Rain Light Rain
5:55 PM 32.0 °F 22.1 °F 26.6 °F 80% 29.79 in 4.0 mi North 13.8 mph 20.7 mph N/A Rain Light Rain
6:15 PM 32.0 °F 22.1 °F 26.6 °F 80% 29.79 in 5.0 mi North 13.8 mph 19.6 mph N/A   Overcast
6:35 PM 32.0 °F 20.8 °F 26.6 °F 80% 29.80 in 10.0 mi NNE 17.3 mph - N/A   Mostly Cloudy
6:55 PM 32.0 °F 21.2 °F 24.8 °F 75% 29.80 in 10.0 mi North 16.1 mph 21.9 mph N/A   Mostly Cloudy
7:15 PM 30.2 °F 20.2 °F 26.6 °F 86% 29.81 in 10.0 mi North 12.7 mph - N/A   Overcast
7:35 PM 30.2 °F 20.8 °F 24.8 °F 80% 29.81 in 10.0 mi North 11.5 mph - N/A   Overcast
7:55 PM 30.2 °F 20.2 °F 24.8 °F 80% 29.81 in 10.0 mi North 12.7 mph - N/A   Scattered Clouds
8:15 PM 30.2 °F 20.8 °F 24.8 °F 80% 29.81 in 8.0 mi North 11.5 mph 17.3 mph N/A   Partly Cloudy
8:35 PM 28.4 °F 19.7 °F 24.8 °F 86% 29.81 in 6.0 mi NNW 9.2 mph - N/A   Clear
8:55 PM 28.4 °F 19.1 °F 24.8 °F 86% 29.81 in 4.0 mi NNW 10.4 mph - N/A   Partly Cloudy
9:15 PM 28.4 °F 20.4 °F 24.8 °F 86% 29.81 in 4.0 mi NNW 8.1 mph 15.0 mph N/A   Mostly Cloudy
9:35 PM 28.4 °F 19.1 °F 24.8 °F 86% 29.81 in 4.0 mi NNW 10.4 mph - N/A   Mostly Cloudy
9:55 PM 26.6 °F 16.8 °F 24.8 °F 93% 29.81 in 5.0 mi NNW 10.4 mph - N/A   Scattered Clouds
10:15 PM 26.6 °F 16.2 °F 23.0 °F 86% 29.81 in 5.0 mi NNW 11.5 mph - N/A   Clear
10:55 PM 24.8 °F 14.6 °F 21.2 °F 86% 29.80 in 5.0 mi NNW 10.4 mph 17.3 mph N/A   Clear
11:15 PM 24.8 °F 14.6 °F 23.0 °F 93% 29.80 in 6.0 mi North 10.4 mph 17.3 mph N/A   Clear
11:35 PM 24.8 °F 14.6 °F 23.0 °F 93% 29.80 in 6.0 mi NNW 10.4 mph - N/A   Clear
11:55 PM 24.8 °F 14.0 °F 23.0 °F 93% 29.80 in 6.0 mi NNW 11.5 mph - N/A   Scattered Clouds